www.pogodaiklimat.ru

Погода и климат >> Архив погоды >> Россия >> Коми >> Усинск


ПОГОДА в Усинске

  • Прогноз погоды в Усинске
  • Монитор погоды в Усинске

АРХИВ ПОГОДЫ в Усинске

Время (UTC), дата Ветер
(напр.,м/с)
 
Видим.   Явления Облачность Т
(С)
Тd
(С)
f
(%)
Тe
(С)
Тes
(С)
Комфортность P
(гПа)
Po
(гПа)
Тmin
(С)
Tmax
(С)
R
(мм)
R24
(мм)
S
(см)
12 13.05 С 3 н/о н/о +3.0 -4.2 59 -1 -1 1026.9 1017.2
15 13.05 СВ 5 н/о н/о +2.6 -4.0 62 -2 -2 1027.3 1017.5
18 13.05 СВ 4 н/о н/о +0.8 -4.1 70 -4 -4 1028.2 1018.4 +5.1
21 13.05 СВ 3 н/о н/о -1.7 -6.3 71 -6 -6 1028.8 1018.9
00 14.05 СВ 2 н/о н/о -2.9 -7.0 73 -7 -7 1030.1 1020.1
03 14.05 СВ 2 н/о н/о -0.3 -6.3 64 -4 -4 1030.2 1020.4 -3.1
06 14.05 В 2 н/о н/о +3.7 -3.5 59 +1 +1 1030.2 1020.5 -3.1
09 14.05 В 1 н/о н/о +7.1 -1.3 55 +7 +7 1030.0 1020.4
12 14.05 С 2 н/о н/о +6.9 -2.0 53 +5 +5 1029.4 1019.8
15 14.05 В 1 н/о н/о +8.6 -2.4 46 +8 +8 1028.5 1018.9
18 14.05 ЮВ 1 н/о н/о +3.5 -3.3 61 +2 +2 1028.4 1018.7 +8.6
21 14.05 ЮВ 3 н/о н/о +1.2 -6.8 55 -3 -3 1028.5 1018.7
03 15.05 ЮВ 5 н/о н/о +3.8 -6.0 49 -1 -1 1027.1 1017.4 +0.1
06 15.05 ЮВ 5
{10}
н/о н/о +7.7 -6.0 37 +5 +5 1024.9 1015.4 +0.1
09 15.05 ЮВ 5
{11}
н/о н/о +10.4 -4.1 36 +8 +8 1022.9 1013.5
12 15.05 ЮВ 5
{10}
н/о н/о +11.1 -4.5 33 +9 +9 1021.0 1011.6
15 15.05 ЮВ 4 н/о н/о +8.7 -5.1 37 +6 +6 1019.2 1009.7
18 15.05 ЮВ 3 н/о н/о +7.0 -4.4 44 +5 +5 1018.2 1008.7 +11.1
21 15.05 З 4 н/о н/о +4.5 +1.5 81 0 0 1018.1 1008.5
00 16.05 З 3 н/о н/о +1.5 +0.3 92 -3 -3 1018.9 1009.2
03 16.05 СЗ 2 н/о н/о +1.2 -0.6 88 -2 -2 1019.1 1009.4 +1.2
06 16.05 З 2 н/о н/о +2.6 -1.4 75 -0 -0 1018.9 1009.3 +1.2
09 16.05 СЗ 2 н/о н/о +4.2 -2.3 63 +2 +2 1018.2 1008.6
12 16.05 В 1 н/о н/о +4.8 -3.1 57 +4 +4 1017.8 1008.3
15 16.05 Ю 2 н/о н/о +4.8 -2.4 60 +3 +3 1016.8 1007.2
18 16.05 штиль 0 н/о н/о +2.1 -1.7 76 +1 +1 1015.6 1005.9 +5.9
21 16.05 З 2 н/о н/о +1.6 -2.0 77 -2 -2 1013.9 1004.2
00 17.05 З 2 н/о н/о +0.8 -1.6 84 -3 -3 1012.2 1002.5
03 17.05 З 2 н/о н/о +2.9 -2.0 70 0 0 1010.2 1000.7 +0.8
06 17.05 В 2 н/о н/о +4.8 -1.9 62 +3 +3 1008.7 999.2 +0.8
09 17.05 СЗ 1 н/о н/о +6.0 -3.8 49 +6 +6 1007.4 998.0
12 17.05 СЗ 2 н/о н/о +6.4 -4.6 45 +5 +5 1006.8 997.4
15 17.05 СЗ 2 н/о н/о +5.4 -3.3 53 +3 +3 1006.5 997.0
18 17.05 СЗ 2 н/о н/о +2.2 -3.0 68 -1 -1 1005.7 996.2 +7.3
21 17.05 СЗ 2 н/о н/о +0.6 -2.0 83 -3 -3 1004.5 994.9
00 18.05 СЗ 2 н/о н/о -0.1 -2.1 86 -4 -4 1003.1 993.5
03 18.05 СЗ 5 н/о н/о +0.3 -1.8 86 -6 -6 1001.2 991.6 -0.4
06 18.05 СЗ 6-11
{12}
н/о н/о +0.6 -1.2 88 -6 -6 998.7 989.2 -0.4
09 18.05 С 4
{11}
н/о н/о +2.2 +0.3 87 -3 -3 998.5 989.0
12 18.05 С 4 н/о н/о +2.8 -0.2 81 -2 -2 1000.0 990.6
15 18.05 С 3 н/о н/о +2.8 +0.4 84 -1 -1 1001.7 992.3
18 18.05 С 3 н/о н/о +2.1 0.0 86 -2 -2 1003.1 993.5 +3.4
21 18.05 С 3 н/о н/о +1.1 -0.8 87 -3 -3 1004.1 994.6
00 19.05 С 4 н/о н/о +2.0 -0.6 83 -3 -3 1005.3 995.8
03 19.05 С 5 н/о н/о +4.6 -1.3 66 0 0 1006.5 997.0 +1.0
06 19.05 С 4
{10}
н/о н/о +7.3 -2.7 49 +4 +4 1008.5 999.1 +1.0
09 19.05 С 4 н/о н/о +8.0 -3.3 45 +5 +5 1009.7 1000.3
12 19.05 С 6
{10}
н/о н/о +7.5 -4.6 42 +4 +4 1011.0 1001.6
15 19.05 С 5
{10}
н/о н/о +5.1 -4.6 49 +1 +1 1012.3 1002.8
18 19.05 СЗ 4 н/о н/о +2.5 -2.9 68 -2 -2 1012.6 1003.0 +8.1
21 19.05 С 4 н/о н/о -1.2 -4.1 81 -7 -7 1012.7 1003.0
03 20.05 СЗ 5-10
{11}
н/о н/о -2.2 -5.9 76 -9 -9 1014.3 1004.5 -3.2

 

Местоположение метеостанции Усинск (Коми, Россия): широта 66.03 долгота 57.37 высота над уровнем моря 79 м.

В архиве по умолчанию представлена погода в Усинске за последнюю неделю. Архивные данные за месяц целиком и за предыдущие месяцы, начиная с января 2011 года, Вы можете получить, выбрав интересующий диапазон дат из раскрывающегося списка и нажав кнопку "Ввод!".


*Определитесь, кто Вы:
робот инопланетянин человек

Внимание! Время в таблицах - всемирное. Для получения местного времени необходимо прибавить поправку, которая равна 3 ч.

Смотрите также архив погоды в соседних городах и на ближайших метеорологических станциях:

Погода в Усть-Усе (Коми, Россия) (21 км)
Погода в Мутном Материке (Коми, Россия) (100 км)
Погода в Печоре (Коми, Россия) (102 км)
Погода в Харуте (Ненецкий АО, Россия) (132 км)
Погода в Хорей-Вере (Ненецкий АО, Россия) (158 км)
Погода в Петруни (Коми, Россия) (159 км)
Погода в Ираеле (Коми, Россия) (191 км)
Погода в Ижме (Коми, Россия) (196 км)
Погода в Усть-Щугоре (Коми, Россия) (196 км)
Погода в Окуневом Носу (Коми, Россия) (217 км)

Пояснения к столбцам:

Ветер - указаны скорость ветра в м/с - средняя за 10 мин, порывы в срок и между сроками (в фигурных скобках) и направление, откуда дует ветер: С - северный, СВ - северо-восточный, В - восточный, ЮВ - юго-восточный, Ю - южный, ЮЗ - юго-западный, З - западный, СЗ - северо-западный.
Видимость - горизонтальная дальность видимости в метрах или километрах. При видимости от 1 до 10 км при отсутствии осадков обычно наблюдается дымка, при ухудшении видимости до 1 км и менее - туман. В сухую погоду видимость может ухудшаться дымом, пылью или мглою.
Явления - указаны атмосферные явления, наблюдавшиеся в срок или в последний час перед сроком; фигурными скобками обозначены явления, наблюдавшиеся между сроками (за 1-3 часа до срока); квадратными скобками обозначены град или гололедные отложения с указанием их диаметра в мм.
Облачность - указаны через наклонную черту общая и нижняя облачность в баллах и высота нижней границы облаков в метрах; квадратными скобками обозначены формы облаков: Ci - перистые, Cs - перисто-слоистые, Cc - перисто-кучевые, Ac - высококучевые, As - высокослоистые, Sc - слоисто-кучевые, Ns - слоисто-дождевые, Cu - кучевые, Cb - кучево-дождевые. Подробнее классификацию облаков см. в Атласе облаков (PDF).
T - Температура воздуха - температура, измеренная на высоте 2 м над землей.
Td - Температура точки росы - температура, при понижении до которой содержащийся в воздухе водяной пар достигнет насыщения.
f - Относительная влажность воздуха - влажноcть воздуха, измеренная на высоте 2 м над землей.
Te - Эффективная температура - температура, которую ощущает одетый по сезону человек в тени. Характеристика душности погоды. При расчете учитывается влияние влажности воздуха и скорости ветра на теплоощущения человека.
Tes - Эффективная температура на солнце - температура, которую ощущает человек, с поправкой на солнечный нагрев. Характеристика знойности погоды. Зависит от высоты солнца над горизонтом, облачности и скорости ветра. Ночью, в пасмурную погоду, а также при ветре 12 м/с и более поправка равна нулю.
P - Атмосферное давление - приведенное к уровню моря атмосферное давление.
Po - Атмосферное давление - измеренное на уровне метеостанции атмосферное давление.
Tmin - Минимальная температура - минимум температуры воздуха на высоте 2 м над землей.
Tmax - Максимальная температура - максимум температуры воздуха на высоте 2 м над землей.
R - Количество осадков - Количество выпавших осадков за период времени, мм. При наведении курсора мыши на число - период времени, за который выпало указанное количество осадков.
R24 - Количество осадков - Количество выпавших осадков за 24 часа, мм.
S - Снежный покров - Высота снежного покрова, см. При наведении курсора мыши на число - состояние снежного покрова и степень покрытия местности в баллах.